Flag for Mexico Weather past 2 weeks in Mexicali, Baja California, Mexico

Now
86 °F

Partly sunny.


Feels Like: 89 °F
Forecast: 87 / 103 °F
Wind: 8 mph from Northeast

Location: Imperial County Airport

Current Time: Jul 1, 2015 at 8:40:41 AM

Latest Report: Jul 1, 2015 at 7:53 AM


Visibility: 10 mi

Pressure: 29.83 "Hg

Humidity: 55%

Dew point: 68 °F

Location of MexicaliLocation

Historic Weather in Mexicali — Graph

°F

Mexicali temperature yesterday

Maximum temperature yesterday: 104 °F (at 11:53 AM)
Minimum temperature yesterday: 83 °F (at 4:53 AM)
Average temperature yesterday: 94 °F

Past Weeks' High & Low Weather Summary

 TemperatureHumidityPressure
High116 °F (Jun 18, 2:53 PM)79% (Jun 27, 2:53 AM)29.88 "Hg (Jun 27, 2:53 AM)
Low73 °F (Jun 24, 4:53 AM)3% (Jun 19, 3:53 PM)29.59 "Hg (Jun 19, 5:53 PM)
Average94 °F33%29.74 "Hg
* Reported Jun 16 6:53 AM — Jul 1 6:53 AM, Mexicali, Weather by CustomWeather, © 2015

Note: Actual official high and low records may vary slightly from our data, if they occured in-between our weather recording intervals... More about our weather records

Advertising

Mexicali weather history for previous 24 hours

 ConditionsComfort  
Time TempWeatherWind HumidityBarometerVisibility
6:53 AM
Wed, Jul 1
84 °FScattered clouds.3 mph59%29.82 "Hg10 mi
5:53 AM85 °FClear.7 mph57%29.81 "Hg10 mi
4:53 AM87 °FClear.9 mph51%29.78 "Hg10 mi
4:00 AM87 °FClear.15 mph48%29.79 "Hg10 mi
2:53 AM88 °FPassing clouds.21 mph52%29.76 "Hg10 mi
1:53 AM90 °FClear.23 mph42%29.78 "Hg10 mi
12:53 AM89 °FClear.17 mph48%29.76 "Hg10 mi
11:53 PM
Tue, Jun 30
93 °FClear.10 mph34%29.73 "Hg10 mi
10:53 PM94 °FClear.10 mph30%29.72 "Hg10 mi
8:53 PM98 °FSunny.6 mph28%29.70 "Hg10 mi
7:53 PM101 °FSunny.5 mph23%29.69 "Hg10 mi
6:53 PM101 °FSunny.5 mph25%29.69 "Hg10 mi
5:53 PM102 °FSunny.6 mph23%29.70 "Hg10 mi
4:53 PM103 °FSunny.6 mph24%29.71 "Hg10 mi
3:53 PM101 °FSunny.No wind25%29.74 "Hg10 mi
2:53 PM98 °FSunny.9 mph31%29.76 "Hg10 mi
1:53 PM98 °FSunny.13 mph27%29.77 "Hg10 mi
12:53 PM98 °FLight rain. Broken clouds.12 mph27%29.78 "Hg10 mi
11:53 AM104 °FSunny.22 mph24%29.85 "Hg8 mi
10:53 AM98 °FSunny.8 mph38%29.84 "Hg10 mi
9:53 AM95 °FSunny.14 mph49%29.83 "Hg10 mi
8:53 AM91 °FSunny.15 mph56%29.83 "Hg10 mi
Weather by CustomWeather, © 2015

See weather overviewHow to use our weather pages